Location: ?ern� Novina
(50.6762°N, 14.8696°E)
Time: 18:00:26
(UTC+00:00)

Okean-O - Pass Details

Date: 03 March 2021
Orbit: 639 x 640 km, 98.2° (Epoch: 12 April)

Event Time Altitude Azimuth Distance (km) Brightness Sun altitude
Rises 18:22:31 0° 189° (S) 2,935 6.0 -16.1°
Reaches altitude 10° 18:24:53 10° 199° (SSW) 2,030 5.3 -16.5°
Maximum altitude 18:28:54 33° 264° (W) 1,086 4.5 -17.1°
Drops below altitude 10° 18:32:55 10° 329° (NNW) 2,045 5.8 -17.7°
Sets 18:35:20 0° 339° (NNW) 2,959 6.5 -18.1°
